GFSNGP_700_rhum_015.txt.gz
RH
59 81 72 55 60 46 64 62 100 70 69 57 71 79 84 85 90 98 95 79 68 77 85 82 68 53 24 32 34 34 26 19 27 47 94 99 96 97 100 98 99 99 98 96
44 52 58 47 44 52 44 49 58 61 57 67 69 90 99 100 100 94 74 69 72 96 100 90 74 62 59 40 30 24 21 36 64 76 100 99 98 98 98 96 93 75 32 17
76 64 70 53 47 48 60 58 61 71 68 69 82 77 63 58 70 72 70 85 88 100 99 91 79 51 37 27 22 29 52 77 88 90 87 89 90 84 81 84 70 36 20 14
93 85 95 44 52 54 57 51 60 68 65 73 67 68 65 79 82 80 100 100 100 99 85 50 37 30 24 25 40 62 84 97 100 98 93 94 98 99 86 62 40 21 16 16
90 87 78 64 54 57 58 63 64 70 60 75 89 81 70 91 96 98 98 93 90 60 44 34 23 22 23 40 62 91 100 97 97 94 96 97 92 67 39 25 19 17 17 18
79 99 96 58 64 69 73 86 77 76 94 100 96 93 92 93 94 98 91 61 51 43 37 22 18 27 46 65 82 100 99 98 96 92 93 87 50 26 20 18 18 21 25 29
78 95 81 57 63 68 81 76 95 98 98 98 100 100 100 99 99 88 76 48 35 20 12 13 24 46 70 95 100 97 95 90 89 86 68 39 24 22 21 22 26 30 35 31
84 91 84 62 68 77 88 98 98 98 89 87 88 87 98 96 90 58 38 17 10 8 10 32 51 63 80 87 91 90 100 98 89 67 37 27 25 24 30 36 38 45 43 33
85 79 81 85 95 97 98 95 87 92 89 98 100 93 95 88 38 18 11 9 11 14 25 51 70 98 99 97 98 97 98 95 84 45 30 29 24 26 34 44 48 52 46 45
96 82 73 93 92 98 96 74 99 100 90 77 100 97 78 38 17 12 12 15 30 36 50 69 96 100 100 98 98 95 91 64 38 32 30 26 26 28 36 49 68 64 59 63
98 85 88 89 76 98 83 98 97 79 98 98 93 69 47 26 13 13 18 31 54 59 70 81 94 95 91 86 81 70 62 44 37 36 31 27 27 38 59 84 83 73 72 66
97 93 99 95 98 98 98 85 93 98 98 95 73 44 20 16 14 16 22 37 71 79 77 78 78 80 76 63 67 53 41 39 34 31 24 27 43 64 99 96 93 83 73 66
98 100 100 98 98 96 97 95 100 96 93 64 41 30 23 21 18 21 24 56 84 87 86 82 86 83 54 48 40 38 37 35 32 23 40 52 74 91 87 88 87 75 68 61
98 98 98 87 98 97 98 97 97 94 83 65 40 28 24 23 23 22 28 63 82 94 92 86 82 52 33 33 36 38 38 29 24 52 62 80 86 87 86 78 72 65 64 42
100 96 86 85 99 95 96 95 92 86 87 53 33 29 27 24 17 20 37 72 97 100 92 83 51 33 36 37 38 33 28 27 52 66 80 86 88 84 81 80 71 68 48 64
70 69 71 98 100 97 95 93 94 87 71 38 29 27 25 25 17 22 49 78 100 100 88 54 34 34 30 27 24 24 27 50 66 81 84 86 87 86 88 79 74 66 69 94
60 100 95 97 99 100 92 91 82 73 54 29 26 26 25 22 21 35 70 97 99 97 70 34 28 18 20 21 20 30 48 57 76 83 85 87 90 92 90 83 77 91 98 95
97 99 96 94 96 83 81 68 39 31 31 30 27 25 26 30 33 61 95 100 97 93 38 24 15 21 15 20 34 42 56 68 77 82 86 90 93 94 93 87 93 100 93 94
95 92 98 97 90 71 40 28 31 33 33 30 30 30 35 52 57 97 100 99 97 59 29 14 20 22 22 29 40 52 57 67 80 84 84 87 91 94 94 92 98 99 96 94
96 92 71 45 40 30 26 30 37 35 28 30 37 39 43 57 72 100 99 98 85 35 17 18 19 21 31 33 41 49 53 64 76 81 84 90 92 94 93 94 97 98 96 95
63 42 42 39 29 28 32 30 27 30 42 51 58 56 55 65 100 99 98 97 50 25 17 18 16 16 27 37 41 46 55 63 75 83 86 92 96 94 90 91 97 96 98 98
40 42 32 28 27 22 23 34 46 56 64 73 74 75 88 100 99 97 97 78 35 19 18 17 19 20 26 39 44 48 56 65 71 83 89 92 95 96 93 88 94 95 96 99
29 32 31 26 30 41 42 46 60 68 76 78 85 91 99 99 97 97 96 52 29 20 21 18 20 24 28 38 44 44 46 64 74 77 88 94 97 97 96 93 88 96 95 99
39 33 34 37 40 41 44 48 65 71 79 80 82 94 97 97 97 96 78 39 26 21 22 21 21 25 30 35 38 41 45 50 74 81 87 92 96 96 98 97 89 86 96 99
38 46 53 51 48 57 60 68 69 77 84 81 87 92 97 97 97 87 45 33 27 24 25 25 23 26 32 36 37 37 39 48 69 84 92 93 94 97 98 98 98 93 92 97
52 59 57 68 84 88 81 83 86 90 93 91 90 96 98 97 89 50 42 32 28 24 26 29 27 29 34 37 38 40 43 41 51 78 89 95 95 98 99 99 100 99 98 98
53 57 60 67 79 83 84 87 85 92 95 96 95 97 96 90 53 42 34 29 28 26 26 27 28 33 38 42 45 50 53 53 51 49 65 95 100 100 100 100 100 100 100 99

GFSNGP_700_rhum_021.txt.gz
RH
41 36 37 37 41 49 60 57 94 45 58 45 62 66 65 71 74 74 75 74 71 67 60 72 79 57 33 29 25 16 10 8 8 16 49 71 75 85 91 91 92 91 91 87
42 41 42 41 36 47 53 51 58 62 54 56 57 63 70 80 85 90 90 79 76 69 67 83 58 41 31 17 10 6 7 10 24 62 82 100 98 95 97 97 94 90 75 42
51 52 51 46 42 42 44 50 54 55 53 60 63 71 82 79 81 83 85 76 69 79 75 58 42 24 13 7 6 8 16 31 65 68 76 88 92 89 81 76 63 40 30 28
66 61 80 42 52 55 60 51 55 59 64 64 67 73 67 76 86 82 85 84 98 86 63 38 27 15 7 7 11 23 36 61 90 92 88 88 90 89 89 77 46 32 31 33
85 98 74 59 56 59 67 67 62 66 66 65 67 77 86 96 98 99 99 97 85 46 22 14 11 8 8 13 30 40 59 80 90 92 98 100 100 92 71 41 32 32 29 26
98 99 92 56 59 65 68 76 74 80 91 94 96 96 91 99 98 98 87 64 38 20 17 14 10 9 10 22 47 53 67 96 97 99 100 94 67 38 33 33 30 28 26 25
86 99 83 65 69 72 88 91 97 98 99 100 98 96 100 98 98 93 79 52 35 18 17 16 11 10 14 38 58 61 68 89 93 81 55 41 34 33 31 29 26 23 27 43
93 93 80 74 83 95 97 98 98 99 99 97 93 99 98 94 93 81 68 36 26 22 19 18 14 13 24 52 66 71 75 74 55 38 33 32 33 32 25 20 28 41 51 70
96 86 79 83 97 97 100 95 93 94 90 99 97 99 97 90 95 61 46 59 31 19 20 20 19 25 51 81 81 80 78 53 32 32 34 35 31 20 26 43 50 69 72 71
100 70 85 85 88 76 83 100 100 98 90 92 94 96 87 96 85 84 82 47 30 20 21 23 25 42 97 99 93 86 58 32 32 34 32 27 21 36 49 65 72 68 70 72
88 75 90 78 78 98 89 99 95 94 83 100 98 77 87 77 61 55 40 31 25 25 25 25 30 62 100 100 96 80 35 32 28 27 24 22 40 53 72 78 74 77 81 75
93 82 99 88 99 100 98 95 81 87 99 87 84 83 80 63 58 37 29 28 27 28 27 28 36 84 100 100 97 52 32 26 21 21 21 40 48 68 82 83 88 89 84 77
96 97 99 98 90 97 95 77 83 92 100 88 90 92 64 49 38 31 31 31 31 31 30 37 49 92 100 100 85 35 21 18 17 22 38 52 62 62 65 82 93 87 85 89
91 98 86 93 96 80 58 67 83 99 96 88 56 46 36 29 26 27 28 28 27 27 35 48 78 100 100 98 56 22 16 14 27 36 52 58 60 66 72 79 79 82 90 93
97 95 96 84 66 65 88 97 93 93 82 62 46 28 25 22 22 21 22 31 37 40 47 60 93 100 99 94 30 17 15 26 35 46 47 53 63 71 75 83 82 83 87 95
96 92 82 73 71 96 98 96 88 67 53 47 39 26 21 21 22 29 40 49 53 52 57 63 100 99 98 70 20 20 24 29 38 42 48 57 64 71 77 83 82 83 86 90
95 84 80 69 68 62 78 82 60 49 46 27 22 23 24 29 35 43 51 64 69 63 66 100 100 98 97 22 22 24 30 33 37 44 50 60 68 73 77 83 83 82 87 91
95 78 54 42 56 80 84 64 38 24 22 25 26 28 32 38 44 56 70 77 87 93 98 98 98 97 36 20 20 21 33 36 38 48 56 61 70 75 81 86 86 82 87 92
66 41 45 77 91 65 37 26 24 26 29 33 36 36 47 57 61 69 86 84 99 98 97 99 98 59 22 19 19 21 33 39 42 49 55 68 70 76 84 89 90 84 84 92
52 61 72 60 37 28 26 27 31 31 38 38 48 58 49 59 71 74 79 90 100 96 96 100 75 22 21 21 23 25 33 39 40 42 48 66 76 78 84 91 92 91 84 90
61 52 33 27 27 26 31 35 39 42 37 41 64 65 64 67 73 74 85 94 89 88 100 94 29 22 21 21 24 28 32 33 35 40 47 60 81 87 89 92 94 95 89 91
30 26 26 26 28 29 35 41 43 40 40 56 63 66 64 73 72 81 80 77 85 99 97 46 26 23 23 22 24 29 31 31 32 34 38 53 78 94 96 94 95 96 96 95
26 26 26 32 38 38 41 47 47 50 52 61 64 72 67 78 82 81 76 83 94 87 50 34 26 25 26 25 26 28 30 32 34 39 43 46 56 84 95 96 95 97 96 96
25 31 39 43 41 45 46 50 53 52 54 68 78 84 74 86 85 77 81 90 73 50 42 35 29 26 28 30 28 29 33 34 34 39 43 46 50 54 65 87 96 97 99 98
41 44 47 46 41 44 52 55 55 54 57 71 76 78 85 91 85 83 86 77 52 42 34 30 28 27 29 30 29 32 36 33 36 39 41 45 49 52 53 57 83 96 98 100
50 52 53 50 48 48 54 53 52 49 60 69 80 79 90 87 85 88 88 60 49 44 35 31 31 30 28 28 31 35 37 34 39 42 43 46 50 53 56 58 62 85 98 100
65 75 72 62 64 58 55 53 56 53 62 74 80 87 90 91 90 95 96 84 58 44 36 32 32 32 32 33 35 37 36 34 41 46 47 46 48 50 53 59 66 70 92 99

GFSNGP_700_rhum_024.txt.gz
RH
37 35 40 68 52 65 70 73 75 64 56 57 63 71 66 57 67 74 82 94 95 90 96 86 82 73 58 49 25 9 6 6 7 13 29 63 82 99 98 98 100 96 81 69
36 35 36 45 46 70 76 76 77 75 75 72 67 59 59 64 72 82 92 89 84 96 95 91 70 57 28 9 7 6 7 9 20 37 62 76 85 82 83 85 84 85 82 54
50 43 46 60 45 48 54 65 81 74 67 76 77 91 85 81 83 93 91 90 100 99 88 57 40 21 11 8 8 8 11 25 46 60 78 88 90 94 95 94 82 56 37 30
62 58 82 62 52 58 56 55 69 73 77 71 71 89 85 96 100 87 81 99 100 94 89 56 22 13 12 10 9 9 19 47 59 68 90 96 95 97 80 44 30 29 29 28
79 94 71 55 59 63 71 66 68 67 67 67 91 100 100 97 81 67 91 100 95 75 60 39 27 19 15 13 12 15 38 58 66 74 91 84 59 33 29 30 30 28 23 20
79 92 77 62 71 66 68 76 78 82 82 86 93 92 96 92 88 99 97 91 85 38 35 35 28 21 18 18 17 25 52 67 71 73 69 45 29 28 28 26 17 17 26 41
96 99 87 78 71 76 92 92 92 97 98 99 89 97 97 94 99 98 91 92 59 65 69 46 28 21 23 24 24 36 72 82 82 72 41 31 30 24 18 15 20 33 43 61
79 94 97 71 80 98 98 96 99 95 99 100 98 97 89 96 91 88 88 74 66 52 38 29 25 24 26 30 36 54 86 90 86 48 33 30 25 17 17 28 35 53 61 64
82 76 83 92 91 97 92 92 96 99 98 98 90 77 89 86 82 73 62 58 49 39 34 27 26 30 31 34 42 65 93 90 72 36 31 25 19 19 31 43 60 60 68 74
88 72 100 99 92 84 98 100 94 100 99 84 68 99 84 67 81 72 54 50 44 36 30 29 32 33 35 38 48 88 98 94 48 34 26 20 21 35 50 61 62 70 75 78
98 88 94 100 97 89 88 95 97 98 73 59 89 96 90 78 63 53 41 33 28 30 31 30 32 38 44 52 66 99 98 83 37 24 19 20 35 50 61 65 68 75 82 83
97 100 99 95 76 90 93 98 92 51 54 93 97 91 86 73 48 34 25 23 24 25 26 28 34 48 53 74 98 99 98 58 28 18 21 36 46 50 56 66 77 79 83 84
95 99 97 70 98 90 100 79 48 57 86 93 92 83 59 40 29 23 23 26 32 39 44 50 57 59 60 83 99 99 96 34 19 22 34 40 42 56 62 69 74 75 83 85
100 99 96 97 92 85 71 50 62 88 97 83 71 56 34 24 20 24 27 33 40 49 55 62 66 65 67 100 98 97 65 22 22 32 37 36 49 59 63 70 78 82 78 88
99 98 97 84 84 69 56 67 84 86 79 70 54 30 21 20 22 28 32 37 42 58 75 79 78 73 97 100 98 96 26 24 30 35 37 39 51 61 67 74 81 82 79 83
95 84 94 86 73 69 57 72 74 74 69 48 24 20 21 28 30 34 53 70 63 74 86 92 96 97 98 98 97 31 27 31 33 35 40 46 53 63 71 78 83 82 78 80
90 100 93 74 46 35 38 48 64 49 24 22 21 25 28 30 37 52 51 68 72 84 86 94 96 93 96 100 38 26 24 29 34 37 44 49 57 64 71 80 85 84 81 78
93 91 80 48 36 34 35 32 24 24 24 27 30 33 33 32 58 62 63 62 69 79 89 93 90 89 99 51 26 22 21 28 36 41 44 44 51 68 75 81 86 87 86 80
78 62 44 39 39 32 24 24 24 26 33 36 35 31 32 47 63 60 64 68 67 82 90 88 84 94 53 24 22 22 24 29 35 39 38 44 49 68 79 84 86 89 89 84
57 46 43 40 27 25 24 26 32 34 39 39 38 35 40 56 66 63 70 72 77 79 82 82 92 70 24 23 21 23 24 27 32 35 36 39 46 67 84 89 90 89 90 90
43 42 31 23 22 23 26 36 38 33 35 42 44 45 56 62 75 67 73 78 77 76 79 90 78 31 23 24 23 22 24 28 32 32 32 37 43 55 76 88 90 90 92 91
28 21 21 23 22 23 35 38 37 36 42 46 48 50 61 70 74 78 84 81 78 80 86 70 43 29 26 27 27 25 26 29 33 33 36 39 42 47 52 62 78 90 94 94
21 25 25 26 31 34 37 36 33 36 42 46 45 52 67 70 76 89 88 84 84 80 55 43 38 32 28 26 29 30 28 31 34 34 39 39 41 44 48 51 54 72 93 96
24 27 28 33 40 46 42 34 33 37 41 46 47 55 66 72 82 87 86 86 86 63 45 37 31 29 28 26 29 31 30 32 34 35 40 40 42 45 48 52 54 55 78 96
28 29 33 45 52 55 55 55 55 56 54 51 53 58 67 78 86 88 85 88 82 61 45 38 32 30 30 27 27 29 32 35 37 36 41 44 45 46 48 50 54 58 61 87
34 41 52 58 62 64 62 63 66 63 55 57 61 65 69 79 87 93 94 95 96 94 68 48 37 30 30 31 31 32 35 37 37 36 41 48 51 48 43 42 44 49 61 70
55 64 69 69 70 70 69 72 76 65 62 68 68 72 77 80 91 93 90 95 98 100 86 52 37 31 30 31 32 36 38 39 39 40 44 51 58 59 54 50 45 42 47 67

GFSNGP_700_rhum_030.txt.gz
RH
50 42 41 37 35 36 38 44 46 48 48 52 67 68 68 75 78 83 82 79 72 80 89 99 82 71 100 94 68 60 52 44 39 36 32 26 23 18 27 49 63 77 73 49
22 46 47 33 38 50 44 47 45 51 55 59 63 66 74 74 65 71 73 70 74 78 78 64 68 94 76 59 55 59 45 47 62 94 62 45 32 47 62 88 88 73 36 24
36 35 31 53 56 51 50 53 57 61 60 62 80 83 78 73 72 78 70 76 75 69 58 78 84 97 64 67 82 77 63 77 99 92 86 77 49 82 92 95 80 37 19 20
38 41 72 45 45 56 57 57 61 62 64 93 100 98 79 74 87 90 90 94 60 50 64 82 94 72 76 98 95 82 75 80 88 88 80 74 70 100 100 93 36 19 17 16
47 80 55 56 62 67 65 62 73 80 89 86 78 77 86 94 86 88 77 50 46 55 76 72 88 96 84 84 95 98 89 98 99 98 86 80 78 100 97 74 26 21 19 38
70 96 75 52 62 73 63 70 93 84 91 90 75 94 84 73 80 76 51 43 58 92 96 96 97 89 91 99 100 100 91 97 67 94 97 92 78 96 98 53 30 22 36 50
100 94 87 66 77 68 76 91 88 87 85 81 82 76 75 82 63 39 70 94 90 87 82 79 66 56 69 75 89 84 83 97 80 61 97 81 74 98 95 30 27 26 45 49
88 96 88 82 87 93 91 90 86 96 100 95 71 76 80 58 37 64 76 73 72 65 52 57 56 73 87 96 89 81 79 63 96 85 93 69 95 98 66 26 32 37 46 51
82 61 77 97 98 98 86 90 98 94 100 87 81 79 54 38 48 64 59 48 34 40 38 36 64 100 98 93 93 77 64 66 79 83 68 86 96 95 25 29 35 44 50 55
76 66 81 93 84 84 84 97 97 97 84 80 72 54 44 43 51 49 34 27 69 34 32 68 93 88 82 90 76 77 74 83 96 82 89 98 96 37 29 35 40 49 53 63
59 71 88 93 92 90 96 99 93 82 84 69 48 37 37 34 23 17 19 29 23 29 69 65 79 62 64 80 70 77 80 72 82 77 86 96 50 32 32 38 46 54 61 70
84 92 81 92 87 75 99 89 90 85 72 53 39 40 28 19 16 17 18 21 25 28 29 30 50 61 70 71 84 88 84 76 87 82 99 58 28 32 34 38 48 55 61 71
68 73 85 94 81 91 96 92 82 75 54 40 33 27 18 15 16 19 21 20 24 28 28 35 59 65 82 80 84 87 90 85 82 90 34 25 29 31 32 36 45 54 58 67
73 78 81 86 99 98 86 74 72 60 41 33 27 17 15 17 18 18 18 20 24 26 36 53 61 64 76 83 89 90 85 82 79 25 23 28 30 34 34 35 40 57 67 70
81 81 78 89 98 78 80 82 70 48 35 27 17 16 18 19 17 18 19 22 24 40 51 57 58 63 69 88 93 84 80 63 22 19 21 28 32 35 33 37 44 61 75 80
99 87 100 99 89 89 86 78 53 36 26 17 15 17 19 21 20 23 23 25 38 46 55 54 58 71 79 85 82 81 63 20 19 18 22 28 31 30 33 36 45 63 77 86
99 100 96 93 85 87 76 47 33 24 16 14 15 17 23 22 23 25 26 27 41 48 54 59 66 73 75 77 80 66 20 19 20 21 24 27 28 28 30 35 43 60 72 76
100 98 98 89 80 56 40 30 22 15 14 16 17 23 28 25 25 26 29 30 34 48 60 67 69 71 76 82 72 28 20 20 21 21 23 26 26 27 33 34 37 43 52 64
84 92 86 58 47 35 29 22 16 15 17 20 22 28 31 28 28 30 35 37 37 50 64 72 72 78 83 78 37 21 21 21 21 22 23 26 27 33 32 34 37 41 46 49
84 59 49 46 36 31 21 16 16 17 21 24 32 39 39 40 46 48 47 43 44 60 72 74 76 76 64 47 30 24 24 25 24 24 25 28 30 34 33 35 38 40 43 46
50 51 44 35 28 19 18 18 19 21 24 35 44 48 50 50 53 53 48 49 56 68 79 79 81 68 45 32 30 28 25 26 28 29 28 30 32 38 37 37 39 40 42 44
49 42 35 24 20 19 20 22 25 25 30 44 58 60 57 52 58 56 56 62 66 73 84 84 83 69 46 36 30 28 27 25 28 30 29 32 34 36 40 40 42 42 39 37
41 27 21 21 21 20 21 25 30 42 52 53 52 58 57 59 66 58 56 68 72 78 88 94 91 84 79 65 43 32 29 28 26 27 29 33 35 35 37 42 46 48 45 43
21 21 21 22 24 25 29 42 53 61 65 60 57 61 69 66 61 63 65 69 76 85 89 96 97 98 99 95 71 42 31 31 30 30 32 35 36 35 36 41 49 55 58 55
20 21 24 28 32 40 57 69 68 67 63 64 68 71 72 73 69 67 64 64 75 85 88 96 100 98 98 100 89 50 36 31 32 32 35 38 39 40 43 48 54 60 68 69
21 24 30 39 58 76 73 64 65 66 67 67 72 74 71 69 70 69 59 61 71 83 90 92 95 98 96 99 96 65 41 34 32 33 36 42 47 50 54 59 64 68 76 80
26 36 56 76 80 87 80 71 61 64 69 66 63 71 72 74 73 66 58 58 68 79 90 96 97 98 100 98 98 94 74 49 42 43 47 56 66 73 83 87 89 87 91 92

GFSNGP_700_rhum_033.txt.gz
RH
42 36 29 35 32 30 33 37 44 46 47 58 68 69 72 71 77 80 81 77 73 69 58 65 68 65 46 41 52 45 45 52 60 63 57 50 46 82 75 53 33 60 85 68
19 25 37 27 39 49 49 49 50 54 55 59 63 68 69 71 77 76 63 56 61 65 67 65 51 40 35 44 52 76 81 98 100 98 96 97 85 86 94 74 38 60 80 83
21 27 27 57 56 52 48 50 52 57 62 62 67 66 68 74 72 68 64 52 60 66 59 42 34 42 75 100 96 88 74 92 98 94 83 94 91 98 97 72 66 74 88 71
28 31 54 48 47 51 52 57 58 64 64 66 76 78 80 75 74 74 61 56 60 40 33 53 87 95 92 92 94 93 98 90 90 92 90 100 97 93 94 61 72 100 94 28
36 43 32 45 62 59 57 61 53 57 67 71 83 85 77 74 68 57 64 52 34 29 59 57 70 78 86 83 73 54 45 54 64 70 96 93 97 96 97 81 98 100 64 30
47 50 77 62 66 65 71 64 57 68 76 78 81 84 85 82 64 64 55 33 23 27 30 49 50 47 38 20 27 54 70 81 78 68 79 94 97 95 60 66 91 94 23 45
63 69 43 42 52 50 73 62 65 71 77 85 87 86 85 73 72 54 29 27 23 21 23 20 16 15 24 23 47 77 85 82 80 78 78 93 96 71 88 99 88 38 34 41
69 95 73 58 68 72 75 80 81 86 81 93 93 91 75 67 49 31 25 21 17 18 14 14 18 19 29 65 77 67 73 75 72 65 74 97 80 86 100 96 65 30 36 49
55 41 51 64 75 78 81 83 86 94 89 100 98 80 71 55 35 26 21 15 13 13 13 14 14 24 44 60 57 61 66 68 74 64 73 80 79 93 98 60 28 31 39 50
77 76 79 73 79 80 85 92 98 88 94 95 83 69 54 36 26 21 15 12 12 12 12 12 20 28 42 54 58 67 64 72 73 73 58 77 84 90 60 27 29 35 41 50
51 62 61 57 67 85 86 99 96 83 92 84 71 56 36 27 21 14 12 12 12 12 14 18 24 33 47 54 56 62 65 71 83 82 76 78 79 28 25 29 32 33 44 56
48 41 49 64 90 90 93 98 97 95 84 76 60 40 30 22 15 12 11 13 13 16 17 20 33 43 50 56 56 58 67 84 80 77 78 52 22 27 28 30 32 35 45 58
39 54 77 86 92 96 99 100 99 86 74 64 47 34 24 15 12 12 14 15 18 20 21 30 37 44 50 52 58 59 81 87 75 75 37 20 25 24 26 32 32 34 43 57
60 73 88 100 99 98 100 98 84 73 74 55 38 25 16 13 12 14 16 18 21 24 24 27 36 46 48 55 69 77 81 74 76 32 17 18 21 24 25 25 25 32 43 58
75 94 100 97 93 95 97 84 80 84 66 39 25 17 13 12 13 17 20 22 23 24 29 27 33 44 56 62 69 73 72 77 37 16 16 17 21 23 24 24 29 31 37 53
100 100 100 100 98 97 93 91 90 65 37 25 18 14 13 14 17 24 26 26 24 24 34 31 35 50 60 62 68 72 75 38 19 18 18 20 21 22 23 28 28 29 32 42
94 97 96 94 96 92 91 79 49 32 26 19 15 14 15 18 23 31 30 27 30 42 42 39 45 57 64 67 75 81 48 21 18 18 19 20 21 23 24 28 27 31 33 36
99 97 97 96 92 90 61 41 34 28 20 16 15 17 19 24 30 32 37 39 41 45 45 46 53 65 71 73 75 57 27 21 20 20 21 21 22 24 28 28 28 32 34 36
96 99 94 92 67 50 43 35 27 19 17 16 18 20 22 28 36 40 43 42 49 50 50 55 64 74 77 70 48 40 30 25 23 24 24 23 24 25 31 31 29 32 37 37
74 65 62 52 50 43 36 26 18 17 18 19 21 24 31 42 46 49 46 50 60 54 57 65 75 83 80 72 45 34 29 28 25 25 27 28 26 28 30 34 34 35 40 40
52 49 50 49 40 31 20 18 17 18 20 23 31 40 49 52 55 53 51 52 58 57 65 74 83 93 90 80 64 49 36 30 28 26 26 29 28 30 32 35 38 38 42 46
48 51 46 35 20 18 18 19 21 22 27 38 53 58 54 51 51 50 61 64 58 63 65 76 87 95 98 94 93 91 72 42 30 29 26 27 28 30 33 34 36 40 46 53
46 33 20 17 15 14 15 21 24 35 49 57 59 55 57 61 65 62 56 65 65 65 62 74 92 94 98 98 98 95 98 77 41 31 30 31 30 32 35 35 35 39 49 58
16 14 12 13 14 15 18 27 45 62 61 61 54 58 68 68 65 70 68 66 68 63 59 68 87 94 95 95 96 95 97 92 54 37 32 32 34 36 39 40 41 45 51 59
14 15 16 18 21 28 45 66 76 86 86 66 60 66 72 70 69 69 73 73 70 62 59 68 82 96 98 97 98 100 98 97 84 51 38 35 35 38 45 50 52 58 66 68
24 26 29 32 47 72 86 88 90 85 65 58 64 76 77 73 70 72 78 78 72 65 63 66 78 94 100 100 100 99 100 99 99 98 82 66 69 76 84 87 92 97 97 97
37 54 68 72 78 85 91 96 90 74 67 68 69 84 84 80 79 84 91 88 80 73 69 68 70 79 93 100 100 100 100 100 100 99 99 99 99 98 99 100 99 100 100 100